| time (UTC) | temp F | wind direction | speed knots | gust knots | rain 1hr in | rain 24hr in | rain mn in | humidity % | barometer mb |
| 20260504211156 | 56 | 250 | 1.7 | 8.7 | 0.00 | 0.00 | 0.00 | 44 | 1000.4 |
| 20260504205656 | 56 | 250 | 3.5 | 12.2 | 0.00 | 0.00 | 0.00 | 43 | 1000.3 |
| 20260504204156 | 56 | 278 | 2.6 | 9.6 | 0.00 | 0.00 | 0.00 | 44 | 1000.2 |
| 20260504202650 | 55 | 19 | 3.5 | 10.4 | 0.00 | 0.00 | 0.00 | 43 | 1000.2 |
| 20260504201152 | 56 | 256 | 2.6 | 10.4 | 0.00 | 0.00 | 0.00 | 44 | 1000.3 |
| 20260504195650 | 56 | 236 | 1.7 | 9.6 | 0.00 | 0.00 | 0.00 | 44 | 1000.3 |
| 20260504192651 | 55 | 296 | 4.3 | 15.6 | 0.00 | 0.03 | 0.00 | 44 | 1000.3 |
| 20260504191150 | 55 | 245 | 5.2 | 13.9 | 0.00 | 0.03 | 0.00 | 45 | 1000.2 |
| 20260504190340 | 55 | 293 | 3.5 | 12.2 | 0.00 | 0.03 | 0.00 | 42 | 1000.2 |
| 20260504184151 | 55 | 242 | 2.6 | 11.3 | 0.00 | 0.03 | 0.00 | 35 | 1000.2 |
| 20260504183339 | 55 | 236 | 5.2 | 13.0 | 0.00 | 0.03 | 0.00 | 33 | 1000.2 |
| 20260504181150 | 56 | 281 | 3.5 | 12.2 | 0.00 | 0.03 | 0.00 | 32 | 1000.4 |
| 20260504175651 | 56 | 313 | 2.6 | 16.5 | 0.00 | 0.03 | 0.00 | 31 | 1000.3 |
| 20260504174150 | 56 | 273 | 3.5 | 12.2 | 0.00 | 0.03 | 0.00 | 30 | 1000.5 |
| 20260504172650 | 56 | 304 | 2.6 | 9.6 | 0.00 | 0.03 | 0.00 | 31 | 1000.4 |
| 20260504151146 | 52 | 18 | 6.1 | 15.6 | 0.00 | 0.03 | 0.00 | 31 | 1000.9 |
| 20260504141146 | 51 | 0 | 4.3 | 13.9 | 0.00 | 0.03 | 0.00 | 36 | 1001.4 |
| 20260504081119 | 34 | 333 | 0.0 | 0.0 | 0.00 | 0.03 | 0.00 | 78 | 1001.6 |
| 20260504045610 | 38 | 17 | 0.0 | 2.6 | 0.00 | 0.03 | 0.00 | 72 | 1002.0 |
| 20260504044109 | 38 | 13 | 0.9 | 6.1 | 0.00 | 0.03 | 0.00 | 71 | 1002.1 |
| 20260504042606 | 39 | 22 | 1.7 | 7.0 | 0.00 | 0.03 | 0.00 | 71 | 1002.1 |
| 20260504041056 | 39 | 32 | 1.7 | 7.8 | 0.00 | 0.03 | 0.00 | 69 | 1002.2 |
| 20260504040253 | 40 | 355 | 3.5 | 9.6 | 0.00 | 0.03 | 0.03 | 68 | 1002.3 |
| 20260504034057 | 40 | 0 | 4.3 | 11.3 | 0.00 | 0.03 | 0.03 | 67 | 1002.2 |
| 20260504032602 | 40 | 44 | 4.3 | 13.0 | 0.00 | 0.03 | 0.03 | 66 | 1002.2 |
| 20260504031056 | 41 | 20 | 5.2 | 11.3 | 0.00 | 0.03 | 0.03 | 66 | 1002.2 |
| 20260504025552 | 41 | 5 | 5.2 | 12.2 | 0.00 | 0.03 | 0.03 | 66 | 1002.1 |
| 20260504024747 | 42 | 336 | 6.1 | 11.3 | 0.00 | 0.03 | 0.03 | 67 | 1002.0 |
| 20260504023254 | 42 | 355 | 5.2 | 12.2 | 0.00 | 0.03 | 0.03 | 67 | 1002.1 |
| 20260504021052 | 42 | 355 | 5.2 | 13.0 | 0.00 | 0.03 | 0.03 | 66 | 1002.1 |
| 20260504015552 | 43 | 0 | 6.1 | 13.0 | 0.00 | 0.03 | 0.03 | 65 | 1002.2 |
| 20260504014052 | 43 | 355 | 6.1 | 13.0 | 0.00 | 0.03 | 0.03 | 65 | 1002.2 |
| 20260504011053 | 44 | 5 | 5.2 | 9.6 | 0.00 | 0.03 | 0.03 | 66 | 1002.1 |
| 20260504005554 | 45 | 5 | 4.3 | 10.4 | 0.00 | 0.03 | 0.03 | 69 | 1001.9 |
| 20260504004057 | 44 | 355 | 1.7 | 4.3 | 0.00 | 0.03 | 0.03 | 81 | 1001.8 |
| 20260504002552 | 44 | 355 | 0.9 | 4.3 | 0.00 | 0.03 | 0.03 | 84 | 1001.7 |
| 20260504001053 | 44 | 13 | 0.0 | 1.7 | 0.00 | 0.03 | 0.03 | 85 | 1001.6 |
| 20260503235551 | 44 | 13 | 0.0 | 0.9 | 0.00 | 0.03 | 0.03 | 84 | 1001.6 |
| 20260503234049 | 44 | 13 | 0.0 | 4.3 | 0.00 | 0.03 | 0.03 | 84 | 1001.5 |
| 20260503232549 | 45 | 62 | 0.0 | 4.3 | 0.00 | 0.03 | 0.03 | 83 | 1001.4 |
| 20260503231049 | 45 | 47 | 0.9 | 7.0 | 0.00 | 0.03 | 0.03 | 83 | 1001.4 |
| 20260503230243 | 45 | 0 | 1.7 | 7.0 | 0.00 | 0.03 | 0.03 | 83 | 1001.4 |
| 20260503224048 | 45 | 5 | 0.9 | 7.0 | 0.00 | 0.03 | 0.03 | 84 | 1001.5 |
| 20260503222549 | 45 | 16 | 1.7 | 6.1 | 0.00 | 0.03 | 0.03 | 85 | 1001.6 |
| 20260503221048 | 45 | 5 | 1.7 | 7.0 | 0.00 | 0.03 | 0.03 | 84 | 1001.7 |
| 20260503215548 | 45 | 350 | 0.9 | 5.2 | 0.00 | 0.03 | 0.03 | 84 | 1001.7 |
| 20260503214046 | 45 | 350 | 0.9 | 5.2 | 0.00 | 0.03 | 0.03 | 83 | 1001.8 |
| 20260503212542 | 44 | 341 | 0.9 | 5.2 | 0.00 | 0.03 | 0.03 | 86 | 1002.0 |